Home   Weather   Abeokuta   Past weeks

Flag for Nigeria Past Weather in Abeokuta, Nigeria — Yesterday and Last 2 Weeks

Now
90 °F

Passing clouds.


Feels Like: 100 °F
Forecast: 77 / 98 °F
Wind: 7 mph from South

Location: Lagos / Ikeja

Current Time: Jan 19, 2017 at 6:19:15 pm

Latest Report: Jan 19, 2017 at 5:00 pm


Visibility: N/A

Pressure: 29.83 "Hg

Humidity: 63%

Dew Point: 75 °F

Location of AbeokutaLocation

Past Weather in Abeokuta — Graph

°F

Abeokuta Temperature Yesterday

Maximum temperature yesterday: 93 °F (at 2:00 pm)
Minimum temperature yesterday: 77 °F (at 6:00 am)
Average temperature yesterday: 84 °F

High & Low Weather Summary for the Past Weeks

 TemperatureHumidityPressure
High97 °F (Jan 8, 3:00 pm)100% (Jan 8, 9:04 am)29.98 "Hg (Jan 8, 9:04 am)
Low68 °F (Jan 14, 8:00 am)23% (Jan 14, 3:00 pm)29.74 "Hg (Jan 10, 5:00 pm)
Average83 °F76%29.86 "Hg
* Reported Jan 4 4:00 pm — Jan 19 4:00 pm, Abeokuta, Weather by CustomWeather, © 2017

Note: Actual official high and low records may vary slightly from our data, if they occured in-between our weather recording intervals... More about our weather records

Advertising

Abeokuta Weather History for the Previous 24 Hours

Scroll right to see more
 ConditionsComfort  
Time TempWeatherWind HumidityBarometerVisibility
4:00 pm
Thu, Jan 19
91 °FPassing clouds.8 mph59%29.83 "HgN/A
3:00 pm93 °FPartly sunny.7 mph59%29.83 "HgN/A
2:00 pm93 °FPartly sunny.8 mph59%29.86 "HgN/A
1:00 pm91 °FPartly sunny.5 mph63%29.89 "HgN/A
12:00 pm90 °FPartly sunny.7 mph67%29.92 "HgN/A
11:00 am88 °FPartly sunny.5 mph75%29.95 "HgN/A
10:00 am84 °FScattered clouds.2 mph84%29.95 "Hg5 mi
9:00 am81 °FScattered clouds.6 mph89%29.92 "Hg4 mi
8:00 am79 °FScattered clouds.2 mph94%29.92 "Hg4 mi
7:00 am79 °FPassing clouds.2 mph94%29.89 "Hg4 mi
6:00 am79 °FPassing clouds.2 mph94%29.89 "Hg5 mi
5:00 am79 °FPassing clouds.2 mph94%29.86 "Hg5 mi
4:00 am81 °FPassing clouds.2 mph89%29.86 "Hg5 mi
3:00 am81 °FPassing clouds.2 mph94%29.86 "Hg5 mi
2:00 am81 °FPassing clouds.2 mph94%29.86 "Hg5 mi
1:00 am82 °FPassing clouds.3 mph84%29.89 "Hg5 mi
12:00 am82 °FPassing clouds.5 mph89%29.89 "Hg5 mi
11:00 pm
Wed, Jan 18
82 °FPassing clouds.2 mph89%29.92 "Hg5 mi
10:00 pm82 °FPassing clouds.3 mph84%29.92 "Hg5 mi
9:00 pm82 °FPassing clouds.7 mph89%29.92 "Hg5 mi
8:00 pm82 °FPassing clouds.7 mph89%29.89 "Hg5 mi
7:00 pm84 °FPassing clouds.6 mph79%29.86 "Hg5 mi
6:00 pm86 °FPassing clouds.5 mph75%29.83 "Hg5 mi
Weather by CustomWeather, © 2017

See weather overviewHow to use our weather pages